Hartford, CT

10:22 PM EDT on August 25, 2016 (GMT -0400)
Hartford-brainard

Weather History for KHFD - January, 2013

Change the Weather History Date:

Friday, January 11, 2013

  Actual Average Record
Temperature  
Mean Temperature 30 °F -  
Max Temperature 36 °F 33 °F 59 °F (1924)
Min Temperature 23 °F 16 °F -10 °F (1942)
Degree Days  
Heating Degree Days 36    
Moisture  
Dew Point 29 °F    
Average Humidity 89    
Maximum Humidity 96    
Minimum Humidity 67    
Precipitation  
Precipitation 0.18 in - - ()
Sea Level Pressure  
Sea Level Pressure 30.35 in    
Wind  
Wind Speed 1 mph (North)    
Max Wind Speed 8 mph    
Max Gust Speed -    
Visibility 6 miles    
Events Rain    
Averages and records for this station are not official NWS values.
T = Trace of Precipitation, MM = Missing Value Source: NWS Daily Summary

Daily Weather History Graph

Daily Weather History Graph

Search for Another Location

Airport or City:

Trip Planner

Search our weather history database for the weather conditions in past years. The results will help you decide how hot, cold, wet, or windy it might be!

Date:

Astronomy

Jan. 11, 2013 Rise Set
Actual Time 7:16 AM EST 4:40 PM EST
Civil Twilight 6:45 AM EST 5:11 PM EST
Nautical Twilight 6:11 AM EST 5:46 PM EST
Astronomical Twilight 5:37 AM EST 6:19 PM EST
Moon 6:46 AM EST (1/11) 4:56 PM EST (1/11)
Length of Visible Light 10h 25m
Length of Day
9h 24m
Waning Crescent, 0% of the Moon is Illuminated
Jan 11
Waning Crescent
Jan 11
New
Jan 18
First Quarter
Jan 26
Full
Feb 3
Last Quarter

Hourly Weather History & Observations

Time (EST) Temp. Windchill Dew Point Humidity Pressure Visibility Wind Dir Wind Speed Gust Speed Precip Events Conditions
12:53 AM 28.9 °F 25.2 °F 25.0 °F 85% 30.53 in 10.0 mi South 3.5 mph - N/A   Clear
1:53 AM 26.1 °F - 23.0 °F 88% 30.54 in 10.0 mi Calm Calm - N/A   Clear
2:53 AM 24.1 °F - 23.0 °F 96% 30.52 in 10.0 mi Calm Calm - N/A   Clear
3:53 AM 24.1 °F - 21.0 °F 88% 30.50 in 9.0 mi Calm Calm - N/A   Clear
4:53 AM 23.0 °F - 21.0 °F 92% 30.48 in 9.0 mi Calm Calm - N/A   Clear
5:53 AM 25.0 °F - 23.0 °F 92% 30.49 in 10.0 mi Calm Calm - N/A   Clear
6:53 AM 25.0 °F - 23.0 °F 92% 30.51 in 10.0 mi Calm Calm - N/A   Clear
7:53 AM 26.1 °F - 24.1 °F 92% 30.51 in 8.0 mi Calm Calm - N/A   Clear
8:53 AM 28.9 °F - 25.0 °F 85% 30.51 in 10.0 mi Calm Calm - N/A   Clear
9:53 AM 30.0 °F - 26.1 °F 85% 30.48 in 8.0 mi Calm Calm - N/A   Clear
10:53 AM 32.0 °F - 27.0 °F 82% 30.48 in 8.0 mi Calm Calm - N/A   Clear
11:53 AM 34.0 °F - 26.1 °F 73% 30.43 in 8.0 mi Calm Calm - N/A   Clear
12:53 PM 35.1 °F - 25.0 °F 67% 30.38 in 10.0 mi Calm Calm - N/A   Partly Cloudy
1:53 PM 36.0 °F - 26.1 °F 67% 30.36 in 10.0 mi Calm Calm - N/A   Overcast
3:53 PM 35.1 °F - 30.0 °F 82% 30.33 in 5.0 mi Calm Calm - 0.01 in Rain Light Rain
4:24 PM 35.6 °F - 32.0 °F 87% 30.31 in 5.0 mi Calm Calm - 0.01 in Rain Light Rain
4:53 PM 34.0 °F - 32.0 °F 92% 30.29 in 6.0 mi Calm Calm - 0.01 in   Overcast
5:53 PM 35.1 °F - 32.0 °F 89% 30.27 in 7.0 mi Calm Calm - 0.01 in   Overcast
6:53 PM 35.1 °F - 33.1 °F 92% 30.25 in 5.0 mi Calm Calm - 0.01 in Rain Light Rain
7:53 PM 36.0 °F - 34.0 °F 93% 30.22 in 3.0 mi Calm Calm - 0.04 in Rain Light Rain
8:00 PM 35.6 °F 32.8 °F 33.8 °F 93% 30.22 in 3.0 mi NNW 3.5 mph - 0.00 in Rain Rain
8:19 PM 35.6 °F 31.7 °F 33.8 °F 93% 30.21 in 2.5 mi North 4.6 mph - 0.03 in Rain Rain
8:32 PM 35.6 °F 29.9 °F 33.8 °F 93% 30.23 in 3.0 mi NW 6.9 mph - 0.03 in Rain Light Rain
8:50 PM 35.6 °F - 33.8 °F 93% 30.22 in 2.5 mi Calm Calm - 0.04 in Rain Light Rain
8:53 PM 35.1 °F - 34.0 °F 96% 30.22 in 2.5 mi Calm Calm - 0.05 in Rain Light Rain
9:13 PM 35.6 °F 32.8 °F 33.8 °F 93% 30.21 in 3.0 mi NNE 3.5 mph - 0.01 in Rain Rain
9:20 PM 35.6 °F - 33.8 °F 93% 30.20 in 2.5 mi Calm Calm - 0.02 in Rain Rain
9:53 PM 35.1 °F - 34.0 °F 96% 30.19 in 2.5 mi Calm Calm - 0.05 in Rain Light Rain
10:53 PM 35.1 °F 32.2 °F 34.0 °F 96% 30.18 in 2.5 mi NE 3.5 mph - 0.00 in   Overcast
11:53 PM 35.1 °F 28.6 °F 34.0 °F 96% 30.18 in 2.5 mi North 8.1 mph - 0.00 in   Overcast